AFL1525 ULLI-UUDD

Flight info

Callsign AFL1525
Flight time N/A
Altitude 37000
Route SUGIN1B SUGIN T873 NIRGI T73 DESUD P164 IBOGI/K0772F290 T287 ESOLO ESOLO3L
Aircraft A321/M-SDE3FGHIRWY/LB1

Departure

Time N/A
Airport Pulkovo Airport (ULLI)

Arrival

Time 2026-05-06 14:10
Airport Domodedovo International Airport (UUDD)
Time Latitude Longitude Altitude Speed Heading
2026-05-06 13:27 58.18125 34.61630 36963 ft 475 kts 145°
2026-05-06 13:28 58.15606 34.65710 36962 ft 474 kts 146°
2026-05-06 13:28 58.10527 34.73599 36945 ft 473 kts 147°
2026-05-06 13:29 58.05412 34.81474 36950 ft 473 kts 146°
2026-05-06 13:29 58.00343 34.89429 36947 ft 474 kts 146°
2026-05-06 13:30 57.95318 34.97348 36953 ft 473 kts 146°
2026-05-06 13:30 57.90247 35.05292 36896 ft 473 kts 145°
2026-05-06 13:31 57.85171 35.13172 36935 ft 472 kts 146°
2026-05-06 13:31 57.80131 35.20950 37048 ft 468 kts 144°
2026-05-06 13:31 57.77622 35.24826 36850 ft 464 kts 146°
2026-05-06 13:32 57.75165 35.28620 36879 ft 462 kts 146°
2026-05-06 13:32 57.70181 35.36299 36866 ft 463 kts 146°
2026-05-06 13:33 57.65179 35.43911 36871 ft 463 kts 146°
2026-05-06 13:33 57.60704 35.52596 36871 ft 474 kts 128°
2026-05-06 13:33 57.59041 35.57933 36871 ft 479 kts 117°
2026-05-06 13:34 57.57828 35.63742 36872 ft 481 kts 112°
2026-05-06 13:34 57.55546 35.75494 36870 ft 482 kts 113°
2026-05-06 13:35 57.53225 35.87125 36869 ft 482 kts 113°
2026-05-06 13:35 57.50874 35.98817 36854 ft 481 kts 115°
2026-05-06 13:36 57.47550 36.09359 36869 ft 471 kts 134°
2026-05-06 13:36 57.42815 36.17562 36873 ft 462 kts 147°
2026-05-06 13:37 57.37781 36.24988 36876 ft 463 kts 146°
2026-05-06 13:37 57.32732 36.32433 36880 ft 463 kts 147°
2026-05-06 13:38 57.27710 36.39787 36717 ft 470 kts 146°
2026-05-06 13:38 57.25097 36.43582 36465 ft 482 kts 146°
2026-05-06 13:38 57.22439 36.47446 36206 ft 488 kts 146°
2026-05-06 13:38 57.19770 36.51335 35942 ft 489 kts 146°
2026-05-06 13:39 57.17098 36.55231 35648 ft 488 kts 146°
2026-05-06 13:39 57.14423 36.59118 34807 ft 491 kts 146°
2026-05-06 13:39 57.11756 36.62987 34337 ft 484 kts 147°
2026-05-06 13:39 57.09143 36.66758 33777 ft 481 kts 147°
2026-05-06 13:40 57.06498 36.70564 32915 ft 482 kts 146°
2026-05-06 13:40 57.03842 36.74369 32011 ft 486 kts 146°
2026-05-06 13:40 57.01177 36.78191 31299 ft 485 kts 146°
2026-05-06 13:40 56.98514 36.82010 30588 ft 483 kts 146°
2026-05-06 13:41 56.95894 36.85762 29918 ft 482 kts 146°
2026-05-06 13:41 56.93256 36.89525 29166 ft 480 kts 146°
2026-05-06 13:41 56.90616 36.93259 28415 ft 477 kts 146°
2026-05-06 13:41 56.87990 36.96956 27681 ft 474 kts 146°
2026-05-06 13:42 56.85379 37.00626 27046 ft 470 kts 146°
2026-05-06 13:42 56.82799 37.04178 26762 ft 455 kts 150°
2026-05-06 13:42 56.80103 37.06949 26502 ft 436 kts 160°
2026-05-06 13:42 56.77416 37.09185 26264 ft 424 kts 161°
2026-05-06 13:43 56.74757 37.11395 26009 ft 415 kts 161°
2026-05-06 13:43 56.72136 37.13562 25753 ft 411 kts 161°
2026-05-06 13:43 56.69538 37.15701 25509 ft 408 kts 161°
2026-05-06 13:43 56.66952 37.17828 25262 ft 406 kts 161°
2026-05-06 13:44 56.64377 37.19942 25020 ft 405 kts 161°
2026-05-06 13:44 56.61815 37.22040 24857 ft 403 kts 161°
2026-05-06 13:44 56.59286 37.24106 24879 ft 403 kts 161°
2026-05-06 13:44 56.56709 37.26205 24882 ft 403 kts 161°
2026-05-06 13:45 56.54144 37.28298 24876 ft 404 kts 161°
2026-05-06 13:45 56.49011 37.32505 24216 ft 402 kts 161°
2026-05-06 13:45 56.46477 37.34587 23844 ft 398 kts 160°
2026-05-06 13:46 56.43968 37.36646 23483 ft 394 kts 160°
2026-05-06 13:46 56.41503 37.38664 23085 ft 392 kts 160°
2026-05-06 13:46 56.39023 37.40692 22726 ft 389 kts 161°
2026-05-06 13:46 56.36556 37.42701 22366 ft 387 kts 161°
2026-05-06 13:47 56.34110 37.44690 22009 ft 385 kts 161°
2026-05-06 13:47 56.31678 37.46662 21623 ft 382 kts 161°
2026-05-06 13:47 56.29254 37.48624 21234 ft 380 kts 161°
2026-05-06 13:47 56.26852 37.50566 20954 ft 378 kts 161°
2026-05-06 13:48 56.24458 37.52500 20597 ft 376 kts 160°
2026-05-06 13:48 56.22098 37.54404 20259 ft 373 kts 160°
2026-05-06 13:48 56.19730 37.56304 19914 ft 371 kts 160°
2026-05-06 13:48 56.17372 37.58194 19571 ft 369 kts 160°
2026-05-06 13:49 56.15028 37.60077 19231 ft 367 kts 160°
2026-05-06 13:49 56.12731 37.61922 18900 ft 365 kts 160°
2026-05-06 13:49 56.10412 37.63778 18637 ft 363 kts 160°
2026-05-06 13:49 56.08102 37.65621 18389 ft 362 kts 160°
2026-05-06 13:50 56.05808 37.67453 18138 ft 360 kts 160°
2026-05-06 13:50 56.03523 37.69278 17874 ft 359 kts 160°
2026-05-06 13:50 56.01235 37.71104 17628 ft 358 kts 160°
2026-05-06 13:50 55.98965 37.72916 17374 ft 357 kts 160°
2026-05-06 13:51 55.96725 37.74702 17123 ft 356 kts 160°
2026-05-06 13:51 55.94478 37.76552 16917 ft 357 kts 155°
2026-05-06 13:51 55.92389 37.78988 16863 ft 359 kts 148°
2026-05-06 13:51 55.90345 37.81585 16875 ft 360 kts 148°
2026-05-06 13:52 55.88292 37.84094 16872 ft 349 kts 154°
2026-05-06 13:52 55.86162 37.85763 16873 ft 331 kts 168°
2026-05-06 13:52 55.83934 37.86511 16758 ft 321 kts 181°
2026-05-06 13:52 55.81710 37.86563 16649 ft 318 kts 185°
2026-05-06 13:53 55.79513 37.86580 16540 ft 318 kts 184°
2026-05-06 13:53 55.77293 37.86603 16443 ft 317 kts 184°
2026-05-06 13:53 55.75083 37.86632 16340 ft 317 kts 184°
2026-05-06 13:53 55.72868 37.86668 16232 ft 317 kts 184°
2026-05-06 13:54 55.70690 37.86711 16133 ft 316 kts 184°
2026-05-06 13:54 55.68490 37.86755 16038 ft 316 kts 184°
2026-05-06 13:54 55.66288 37.86795 15924 ft 316 kts 184°
2026-05-06 13:54 55.64090 37.86833 15768 ft 316 kts 184°
2026-05-06 13:55 55.61879 37.86877 15299 ft 317 kts 184°
2026-05-06 13:55 55.59675 37.86929 14928 ft 315 kts 184°
2026-05-06 13:55 55.57481 37.87001 14545 ft 315 kts 181°
2026-05-06 13:55 55.55315 37.87695 14161 ft 320 kts 166°
2026-05-06 13:56 55.53310 37.89359 13792 ft 326 kts 150°
2026-05-06 13:56 55.51477 37.91736 13371 ft 327 kts 147°
2026-05-06 13:56 55.49660 37.94148 12983 ft 325 kts 147°
2026-05-06 13:56 55.47860 37.96522 12644 ft 321 kts 147°
2026-05-06 13:57 55.46067 37.98855 12333 ft 318 kts 148°
2026-05-06 13:57 55.44289 38.01152 12033 ft 315 kts 148°
2026-05-06 13:57 55.42522 38.03424 11749 ft 313 kts 148°
2026-05-06 13:57 55.40782 38.05660 11543 ft 313 kts 148°
2026-05-06 13:58 55.39026 38.07919 11245 ft 311 kts 148°
2026-05-06 13:58 55.37279 38.10162 10955 ft 309 kts 148°
2026-05-06 13:58 55.35565 38.12360 10663 ft 308 kts 148°
2026-05-06 13:58 55.33836 38.14578 10369 ft 306 kts 148°
2026-05-06 13:59 55.32112 38.16786 10069 ft 304 kts 148°
2026-05-06 13:59 55.30407 38.18966 9779 ft 303 kts 148°
2026-05-06 13:59 55.28705 38.21147 9466 ft 301 kts 147°
2026-05-06 13:59 55.27040 38.23280 9170 ft 300 kts 147°
2026-05-06 14:00 55.25358 38.25428 8880 ft 299 kts 148°
2026-05-06 14:00 55.23646 38.27541 8367 ft 301 kts 148°
2026-05-06 14:00 55.21944 38.29588 8194 ft 290 kts 148°
2026-05-06 14:00 55.20236 38.31300 8061 ft 275 kts 163°
2026-05-06 14:01 55.18417 38.31986 7978 ft 262 kts 181°
2026-05-06 14:01 55.16640 38.31701 7982 ft 257 kts 198°
2026-05-06 14:01 55.14938 38.30759 7983 ft 256 kts 202°
2026-05-06 14:01 55.13245 38.29793 7978 ft 255 kts 202°
2026-05-06 14:02 55.11688 38.28379 7811 ft 250 kts 225°
2026-05-06 14:02 55.10755 38.25923 7453 ft 243 kts 254°
2026-05-06 14:02 55.10624 38.23052 7045 ft 242 kts 281°
2026-05-06 14:02 55.11055 38.20206 6662 ft 243 kts 286°
2026-05-06 14:03 55.11511 38.17351 6273 ft 244 kts 286°
2026-05-06 14:03 55.12134 38.14602 5860 ft 244 kts 303°
2026-05-06 14:03 55.13335 38.12563 5473 ft 247 kts 328°
2026-05-06 14:03 55.14967 38.11582 5076 ft 252 kts 347°
2026-05-06 14:04 55.16708 38.11034 4679 ft 253 kts 347°
2026-05-06 14:04 55.18446 38.10489 4273 ft 254 kts 347°
2026-05-06 14:04 55.20187 38.09943 3871 ft 254 kts 347°
2026-05-06 14:04 55.21910 38.09403 3485 ft 254 kts 347°
2026-05-06 14:05 55.23649 38.08827 3096 ft 254 kts 343°
2026-05-06 14:05 55.25177 38.07495 2993 ft 238 kts 324°
2026-05-06 14:05 55.26488 38.05921 3015 ft 218 kts 324°
2026-05-06 14:05 55.27693 38.04479 2999 ft 202 kts 324°
2026-05-06 14:06 55.28792 38.03168 2958 ft 183 kts 323°
2026-05-06 14:06 55.29785 38.01985 2793 ft 163 kts 323°
2026-05-06 14:06 55.30678 38.00917 2609 ft 148 kts 323°
2026-05-06 14:06 55.31503 37.99932 2429 ft 139 kts 323°
2026-05-06 14:07 55.32296 37.98991 2202 ft 136 kts 323°
2026-05-06 14:07 55.33073 37.98060 2038 ft 134 kts 323°
2026-05-06 14:07 55.33834 37.97146 1871 ft 135 kts 323°
2026-05-06 14:07 55.34605 37.96227 1700 ft 135 kts 323°
2026-05-06 14:08 55.35383 37.95296 1477 ft 134 kts 325°
2026-05-06 14:08 55.36155 37.94366 1328 ft 135 kts 326°
2026-05-06 14:08 55.36928 37.93442 1218 ft 134 kts 323°
2026-05-06 14:08 55.37686 37.92535 1020 ft 133 kts 325°
2026-05-06 14:09 55.38452 37.91613 821 ft 132 kts 327°
2026-05-06 14:09 55.39210 37.90701 637 ft 131 kts 327°
2026-05-06 14:09 55.39957 37.89811 562 ft 122 kts 326°
2026-05-06 14:09 55.40526 37.89128 570 ft 72 kts 325°
2026-05-06 14:10 55.40800 37.88794 576 ft 31 kts 324°
2026-05-06 14:10 55.40968 37.88586 577 ft 29 kts 325°
2026-05-06 14:10 55.41116 37.88424 578 ft 20 kts 338°
2026-05-06 14:10 55.41245 37.88361 581 ft 18 kts 353°
2026-05-06 14:11 55.41354 37.88351 584 ft 12 kts
2026-05-06 14:11 55.41381 37.88440 580 ft 7 kts 115°
2026-05-06 14:11 55.41364 37.88470 580 ft 1 kts 142°
2026-05-06 14:14 55.41363 37.88472 580 ft 1 kts 142°
2026-05-06 14:14 55.41348 37.88492 579 ft 2 kts 143°
2026-05-06 14:14 55.41339 37.88504 584 ft 3 kts 143°
2026-05-06 14:14 55.41324 37.88523 579 ft 3 kts 143°
2026-05-06 14:15 55.41307 37.88546 579 ft 3 kts 143°
2026-05-06 14:15 55.41288 37.88570 579 ft 4 kts 143°
2026-05-06 14:15 55.41265 37.88599 579 ft 6 kts 145°
2026-05-06 14:15 55.41207 37.88667 578 ft 11 kts 146°
2026-05-06 14:16 55.41143 37.88740 577 ft 11 kts 147°
2026-05-06 14:16 55.41082 37.88812 579 ft 10 kts 145°
2026-05-06 14:16 55.41022 37.88885 581 ft 10 kts 145°
2026-05-06 14:16 55.40953 37.88969 579 ft 16 kts 145°
2026-05-06 14:17 55.40859 37.89081 574 ft 17 kts 146°
2026-05-06 14:17 55.40787 37.89221 574 ft 16 kts 111°
2026-05-06 14:17 55.40799 37.89408 573 ft 16 kts 59°
2026-05-06 14:17 55.40850 37.89529 574 ft 10 kts 39°
2026-05-06 14:18 55.40895 37.89617 576 ft 12 kts 56°
2026-05-06 14:18 55.40948 37.89753 574 ft 14 kts 56°
2026-05-06 14:18 55.41003 37.89895 571 ft 14 kts 55°
2026-05-06 14:18 55.41061 37.90041 571 ft 15 kts 56°
2026-05-06 14:19 55.41119 37.90194 568 ft 15 kts 56°
2026-05-06 14:19 55.41169 37.90308 574 ft 9 kts 31°
2026-05-06 14:19 55.41223 37.90275 573 ft 9 kts 325°
2026-05-06 14:19 55.41266 37.90223 576 ft 7 kts 326°
2026-05-06 14:20 55.41313 37.90169 575 ft 6 kts 332°
2026-05-06 14:20 55.41341 37.90170 582 ft 3 kts 22°
2026-05-06 14:20 55.41360 37.90203 576 ft 4 kts 48°
2026-05-06 14:20 55.41368 37.90218 576 ft 1 kts 47°
2026-05-06 14:21 55.41373 37.90229 579 ft 2 kts 51°
2026-05-06 14:21 55.41373 37.90230 579 ft 0 kts 51°